Home > Weather > Phoenix > Past weeks

Flag for USA Past Weather in Phoenix, Arizona, USA — Yesterday and Last 2 Weeks

Now
105 °F

Scattered clouds.


Feels Like: 105 °F
Forecast: 91 / 110 °F
Wind: No wind

Location: Phoenix Sky Harbor International Airport

Current Time: Jul 26, 2016 at 12:50:04 PM

Latest Report: Jul 26, 2016 at 11:51 AM


Visibility: 10 mi

Pressure: 29.77 "Hg

Humidity: 20%

Dew Point: 57 °F

Location of PhoenixLocation

Past Weather in Phoenix — Graph

°F

Phoenix Temperature Yesterday

Maximum temperature yesterday: 106 °F (at 3:51 PM)
Minimum temperature yesterday: 89 °F (at 4:51 AM)
Average temperature yesterday: 97 °F

High & Low Weather Summary for the Past Weeks

 TemperatureHumidityPressure
High111 °F (Jul 14, 3:51 PM)59% (Jul 18, 5:51 AM)29.94 "Hg (Jul 18, 5:51 AM)
Low82 °F (Jul 12, 5:51 AM)5% (Jul 12, 12:51 AM)29.61 "Hg (Jul 11, 6:51 PM)
Average98 °F24%29.78 "Hg
* Reported Jul 11 11:51 AM — Jul 26 11:51 AM, Phoenix, Weather by CustomWeather, © 2016

Note: Actual official high and low records may vary slightly from our data, if they occured in-between our weather recording intervals... More about our weather records

Advertising

Phoenix Weather History for the Previous 24 Hours

Scroll right to see more
 ConditionsComfort  
Time TempWeatherWind HumidityBarometerVisibility
11:51 AM
Tue, Jul 26
105 °FScattered clouds.No wind20%29.77 "Hg10 mi
10:51 AM102 °FScattered clouds.No wind22%29.79 "Hg10 mi
9:51 AM100 °FScattered clouds.3 mph23%29.80 "Hg10 mi
8:51 AM98 °FScattered clouds.No wind24%29.80 "Hg10 mi
7:51 AM95 °FPassing clouds.5 mph28%29.80 "Hg10 mi
6:51 AM92 °FScattered clouds.5 mph32%29.79 "Hg10 mi
5:51 AM91 °FBroken clouds.3 mph32%29.78 "Hg10 mi
4:51 AM91 °FPartly cloudy.7 mph32%29.75 "Hg10 mi
3:51 AM92 °FPassing clouds.5 mph30%29.74 "Hg10 mi
2:51 AM93 °FPassing clouds.3 mph28%29.73 "Hg10 mi
1:51 AM94 °FPassing clouds.12 mph27%29.73 "Hg10 mi
12:51 AM96 °FPassing clouds.14 mph25%29.73 "Hg10 mi
11:51 PM
Mon, Jul 25
96 °FPassing clouds.6 mph26%29.73 "Hg10 mi
10:51 PM97 °FPassing clouds.No wind24%29.74 "Hg10 mi
9:51 PM99 °FPassing clouds.8 mph21%29.75 "Hg10 mi
8:51 PM99 °FPassing clouds.14 mph22%29.74 "Hg10 mi
7:51 PM100 °FPassing clouds.13 mph24%29.72 "Hg10 mi
6:51 PM103 °FScattered clouds.13 mph24%29.70 "Hg10 mi
5:51 PM106 °FScattered clouds.6 mph20%29.69 "Hg10 mi
4:51 PM106 °FScattered clouds.8 mph19%29.70 "Hg10 mi
3:51 PM106 °FScattered clouds.7 mph20%29.71 "Hg10 mi
2:51 PM105 °FScattered clouds.12 mph21%29.73 "Hg10 mi
1:51 PM104 °FScattered clouds.13 mph21%29.77 "Hg10 mi
12:51 PM102 °FScattered clouds.10 mph23%29.81 "Hg10 mi
Weather by CustomWeather, © 2016

See weather overviewHow to use our weather pages